Weather History for Defuniak Springs, Defuniak Sp, FL

Change the Weather History Date:

Wednesday, December 4, 2013

  Actual Average (KCEW) Record (KCEW)
Temperature  
Mean Temperature 68 °F -  
Max Temperature 74 °F 67 °F 79 °F (2005)
Min Temperature 61 °F 39 °F 22 °F (1989)
Cooling Degree Days 2    
Growing Degree Days 18 (Base 50)    
Moisture  
Dew Point 67 °F    
Average Humidity 94    
Maximum Humidity 100    
Minimum Humidity 77    
Precipitation  
Precipitation 0.42 in - - ()
Sea Level Pressure  
Sea Level Pressure 29.97 in    
Wind  
Wind Speed 4 mph (South)    
Max Wind Speed 13 mph    
Max Gust Speed 18 mph    
Visibility 6 miles    
Events Fog , Rain    
Averages and records for this station are not official NWS values.
T = Trace of Precipitation, MM = Missing Value Source: NWS Daily Summary

Daily Weather History Graph

Daily Weather History Graph

Search for Another Location

Airport:

Trip Planner

Search our weather history database for the weather conditions in past years. The results will help you decide how hot, cold, wet, or windy it might be!

Date:

Astronomy

Dec. 04, 2013 Rise Set
Actual Time 6:27 AM CST 4:42 PM CST
Civil Twilight 6:00 AM CST 5:09 PM CST
Nautical Twilight 5:30 AM CST 5:39 PM CST
Astronomical Twilight 5:01 AM CST 6:08 PM CST
Moon 7:57 AM CST (12/4) 6:49 PM CST (12/4)
Length of Visible Light 11h 08m
Length of Day
10h 15m
Waxing Crescent, 4% of the Moon is Illuminated
Dec 4
Waxing Crescent
Dec 9
First Quarter
Dec 17
Full
Dec 25
Last Quarter
Jan 1
New

Hourly Weather History & Observations

Time (CST) Temp. Dew Point Humidity Pressure Visibility Wind Dir Wind Speed Gust Speed Precip Events Conditions
12:15 AM 61.9 °F 61.9 °F 100% 29.90 in 0.5 mi Calm Calm - N/A Fog Fog
12:35 AM 62.8 °F 62.8 °F 100% 29.90 in 4.0 mi SE 3.5 mph - N/A   Overcast
12:55 AM 62.8 °F 62.8 °F 100% 29.91 in 1.2 mi Calm Calm - N/A   Overcast
1:15 AM 63.5 °F 63.5 °F 100% 29.91 in 1.5 mi South 3.5 mph - N/A   Overcast
1:35 AM 63.9 °F 63.9 °F 100% 29.92 in 1.2 mi Calm Calm - N/A   Overcast
1:55 AM 63.7 °F 63.7 °F 100% 29.92 in 3.0 mi Calm Calm - N/A   Overcast
2:15 AM 63.1 °F 63.1 °F 100% 29.92 in 1.0 mi Calm Calm - N/A   Overcast
2:35 AM 63.7 °F 63.7 °F 100% 29.92 in 1.5 mi ESE 3.5 mph - N/A   Overcast
2:55 AM 64.2 °F 64.2 °F 100% 29.93 in 2.5 mi South 5.8 mph - 0.05 in Rain Light Rain
3:15 AM 63.7 °F 63.7 °F 100% 29.93 in 7.0 mi Calm Calm - N/A   Mostly Cloudy
3:35 AM 63.0 °F 63.0 °F 100% 29.93 in 5.0 mi South 3.5 mph - N/A   Mostly Cloudy
3:55 AM 62.6 °F 62.6 °F 100% 29.93 in 1.0 mi Calm Calm - N/A   Mostly Cloudy
4:15 AM 62.1 °F 62.1 °F 100% 29.92 in 0.8 mi SE 3.5 mph - N/A   Overcast
4:35 AM 62.8 °F 62.8 °F 100% 29.92 in 1.0 mi SSE 4.6 mph - N/A   Overcast
4:55 AM 63.5 °F 63.5 °F 100% 29.93 in 0.8 mi Calm Calm - N/A   Overcast
5:15 AM 63.7 °F 63.7 °F 100% 29.93 in 0.5 mi SSE 3.5 mph - N/A Fog Fog
5:35 AM 63.7 °F 63.7 °F 100% 29.95 in 0.2 mi Calm Calm - N/A Fog Fog
5:55 AM 63.9 °F 63.9 °F 100% 29.95 in 0.2 mi SSE 3.5 mph - N/A Fog Fog
6:15 AM 63.9 °F 63.9 °F 100% 29.95 in 0.2 mi SSE 4.6 mph - N/A Fog Fog
6:35 AM 64.2 °F 64.2 °F 100% 29.96 in 0.2 mi Calm Calm - N/A Fog Fog
6:55 AM 64.6 °F 64.6 °F 100% 29.97 in 0.2 mi Calm Calm - N/A Fog Fog
7:15 AM 65.3 °F 65.3 °F 100% 29.97 in 0.2 mi SSE 3.5 mph - N/A Fog Fog
7:35 AM 66.4 °F 66.4 °F 100% 29.98 in 1.8 mi SSE 4.6 mph - N/A   Overcast
7:55 AM 66.9 °F 66.9 °F 100% 29.99 in 4.0 mi SSE 4.6 mph - N/A   Overcast
8:15 AM 67.3 °F 67.3 °F 100% 30.00 in 4.0 mi SSE 4.6 mph - N/A   Overcast
8:35 AM 68.0 °F 68.0 °F 100% 30.00 in 5.0 mi South 4.6 mph - N/A   Overcast
8:55 AM 68.9 °F 68.9 °F 100% 30.01 in 7.0 mi South 4.6 mph - N/A   Overcast
9:15 AM 69.8 °F 69.8 °F 100% 30.02 in 10.0 mi South 5.8 mph - N/A   Overcast
9:35 AM 70.0 °F 70.0 °F 100% 30.02 in 10.0 mi South 8.1 mph - N/A   Overcast
9:55 AM 70.7 °F 70.0 °F 98% 30.02 in 10.0 mi South 8.1 mph - N/A   Overcast
10:15 AM 71.4 °F 69.3 °F 93% 30.02 in 10.0 mi South 6.9 mph 10.4 mph 0.01 in   Overcast
10:35 AM 71.6 °F 68.9 °F 91% 30.01 in 10.0 mi South 8.1 mph - 0.01 in   Overcast
10:55 AM 71.6 °F 68.2 °F 89% 30.01 in 10.0 mi South 9.2 mph - 0.01 in   Overcast
11:15 AM 72.7 °F 67.3 °F 83% 30.00 in 10.0 mi South 9.2 mph - N/A   Overcast
11:35 AM 73.4 °F 67.1 °F 81% 29.99 in 10.0 mi South 9.2 mph - N/A   Overcast
11:55 AM 74.1 °F 66.6 °F 77% 29.99 in 10.0 mi South 9.2 mph 17.3 mph N/A   Scattered Clouds
12:15 PM 74.3 °F 67.1 °F 78% 29.98 in 10.0 mi South 10.4 mph 16.1 mph N/A   Mostly Cloudy
12:35 PM 74.3 °F 67.1 °F 78% 29.97 in 10.0 mi South 10.4 mph 17.3 mph N/A   Overcast
12:55 PM 73.4 °F 67.3 °F 81% 29.96 in 10.0 mi South 9.2 mph 17.3 mph N/A   Overcast
1:15 PM 73.6 °F 67.3 °F 81% 29.95 in 10.0 mi South 10.4 mph - N/A   Overcast
1:35 PM 73.0 °F 68.0 °F 84% 29.95 in 10.0 mi South 10.4 mph 16.1 mph N/A Rain Light Rain
1:55 PM 73.9 °F 67.8 °F 81% 29.95 in 10.0 mi South 12.7 mph 16.1 mph N/A   Overcast
2:15 PM 73.6 °F 67.6 °F 82% 29.95 in 10.0 mi South 11.5 mph 17.3 mph N/A   Overcast
2:35 PM 72.9 °F 68.0 °F 85% 29.95 in 10.0 mi South 10.4 mph - N/A Rain Rain
2:55 PM 73.2 °F 68.0 °F 84% 29.95 in 10.0 mi South 8.1 mph 17.3 mph N/A   Overcast
3:15 PM 73.9 °F 68.0 °F 82% 29.95 in 10.0 mi South 12.7 mph 17.3 mph N/A   Overcast
3:35 PM 73.9 °F 68.0 °F 82% 29.96 in 10.0 mi South 9.2 mph 16.1 mph N/A   Overcast
3:55 PM 73.2 °F 67.6 °F 83% 29.97 in 10.0 mi South 5.8 mph - N/A   Overcast
4:15 PM 72.7 °F 68.0 °F 85% 29.97 in 10.0 mi South 6.9 mph - N/A   Overcast
4:35 PM 72.0 °F 68.0 °F 87% 29.97 in 10.0 mi South 6.9 mph - N/A   Mostly Cloudy
4:55 PM 71.1 °F 68.0 °F 90% 29.96 in 10.0 mi SSE 6.9 mph - N/A   Mostly Cloudy
5:15 PM 70.9 °F 68.0 °F 91% 29.96 in 10.0 mi SSE 6.9 mph - N/A   Overcast
5:35 PM 70.9 °F 68.4 °F 92% 29.97 in 10.0 mi South 5.8 mph - N/A   Overcast
5:55 PM 70.9 °F 68.5 °F 92% 29.97 in 10.0 mi South 6.9 mph - N/A   Overcast
6:15 PM 70.9 °F 68.5 °F 92% 29.98 in 10.0 mi South 6.9 mph - N/A   Overcast
6:35 PM 70.9 °F 68.5 °F 92% 29.98 in 10.0 mi South 8.1 mph - N/A   Overcast
6:55 PM 70.3 °F 68.4 °F 93% 29.98 in 10.0 mi South 6.9 mph - N/A   Overcast
7:10 PM 70.2 °F 68.2 °F 93% 29.99 in 10.0 mi South 5.8 mph - N/A   Overcast
7:35 PM 70.0 °F 67.3 °F 91% 29.99 in 10.0 mi South 9.2 mph - N/A   Overcast
7:55 PM 68.5 °F 67.1 °F 95% 29.99 in 5.0 mi SSE 3.5 mph - 0.02 in Rain Rain
8:15 PM 68.0 °F 67.3 °F 98% 30.00 in 10.0 mi Calm Calm - N/A   Overcast
8:35 PM 68.0 °F 67.5 °F 98% 30.00 in 10.0 mi SSE 3.5 mph - N/A   Drizzle
8:55 PM 68.0 °F 68.0 °F 100% 30.00 in 7.0 mi South 3.5 mph - 0.02 in   Overcast
9:15 PM 68.7 °F 68.5 °F 99% 30.00 in 10.0 mi SE 8.1 mph - N/A Rain Rain
9:35 PM 68.9 °F 68.9 °F 100% 30.00 in 4.0 mi South 8.1 mph - 0.06 in Rain Heavy Rain
9:55 PM 69.3 °F 69.3 °F 100% 30.00 in 7.0 mi SSE 8.1 mph - 0.08 in Rain Light Rain
10:15 PM 69.3 °F 69.3 °F 100% 30.01 in 10.0 mi South 5.8 mph - 0.01 in Rain Light Rain
10:35 PM 69.6 °F 69.4 °F 99% 30.01 in 4.0 mi South 5.8 mph - 0.12 in Rain Light Rain
10:55 PM 69.8 °F 69.8 °F 100% 30.01 in 7.0 mi South 9.2 mph - 0.13 in Rain Light Rain
11:15 PM 70.2 °F 70.2 °F 100% 30.01 in 7.0 mi South 9.2 mph - 0.01 in Rain Light Rain
11:35 PM 70.5 °F 70.3 °F 99% 30.01 in 4.0 mi South 12.7 mph 18.4 mph 0.11 in Rain Light Rain
11:55 PM 70.9 °F 70.7 °F 99% 30.00 in 10.0 mi South 11.5 mph 17.3 mph 0.11 in   Overcast